[[{"header":{"parameterUnit":"m.s-1","parameterCategory":1,"la1":30.2991,"la2":30.254,"lo1":-89.0895,"lo2":-89.0444,"dy":0.0017,"dx":0.0017,"nx":28,"ny":28,"refTime":"2025-04-04T21:00:00:Z","depth":0,"parameterNumber":2,"parameterNumberName":"U-component_of_WINDS"},"data":[0,0,0,0,0,0,0,0,0,0,0,0,0,0,0,0,0,0,0,0,0,0,0,0,0,0,0,0,0,0,0,0,0,0,0,0,0,0,0,0,0,0,0,0,0,0,0,0,0,0,0,0,0,0,0,0,0,0,-4.2262,-4.2263,0,-4.2357,-4.2359,-4.236,-4.2363,-4.2362,-4.2361,-4.236,-4.2457,-4.2461,-4.2464,0,0,0,0,0,0,0,0,0,0,0,0,0,-4.2083,-4.2086,-4.2262,-4.2263,-4.2264,-4.2357,-4.2359,-4.236,-4.2363,-4.2362,-4.236,-4.2359,-4.2456,-4.246,-4.2465,0,0,0,0,0,0,0,0,0,0,0,0,0,-4.2168,-4.2087,-4.2262,-4.2277,-4.2279,-4.2357,-4.2359,-4.236,-4.2363,-4.2362,-4.236,-4.2358,-4.2454,-4.246,-4.2465,-4.2534,0,0,-4.2482,-4.2484,0,0,0,0,0,0,0,0,-4.2163,-4.2174,-4.2274,-4.2276,-4.2279,-4.2347,-4.2331,-4.2418,-4.2364,-4.2332,-4.236,-4.2358,-4.2422,-4.243,-4.2451,-4.2538,-4.2542,-4.2482,-4.2486,-4.2488,-4.249,0,0,0,0,0,0,0,-4.2157,-4.217,-4.23,-4.2275,-4.2278,-4.2279,-4.229,-4.2348,-4.2385,-4.2334,-4.2335,-4.2346,-4.2423,-4.2446,-4.2454,-4.2544,-4.2482,-4.2487,-4.2491,-4.2493,-4.2692,-4.2694,0,0,0,0,0,0,-4.2148,-4.2165,-4.2297,-4.2302,-4.2215,-4.2284,-4.2295,-4.2327,-4.2384,-4.2392,-4.2347,-4.2346,-4.2438,-4.2447,-4.2457,-4.2541,-4.2488,-4.2493,-4.2496,-4.269,-4.2693,-4.2695,0,0,0,0,0,0,-4.2144,-4.216,-4.2293,-4.2234,-4.2251,-4.2289,-4.2324,-4.2329,-4.2353,-4.2394,-4.2401,-4.2364,-4.2437,-4.2449,-4.2515,-4.2544,-4.2496,-4.2501,-4.2688,-4.2691,-4.2694,-4.2709,0,0,0,0,0,0,-4.2139,-4.2158,-4.2184,-4.2235,-4.2254,-4.2348,-4.2326,-4.2332,-4.2362,-4.2361,-4.2412,-4.2419,-4.2436,-4.2507,-4.252,-4.2551,-4.2505,-4.2685,-4.2689,-4.2693,-4.2706,-4.2712,-4.2718,0,0,0,0,0,-4.2133,-4.2185,-4.2186,-4.2201,-4.2288,-4.235,-4.2361,-4.238,-4.2365,-4.2391,-4.2418,-4.2417,-4.2539,-4.2513,-4.2529,-4.2562,-4.2684,-4.2688,-4.2693,-4.2704,-4.2711,-4.2718,0,0,0,0,0,0,-4.2136,-4.2191,-4.2193,-4.2263,-4.2302,-4.2351,-4.2384,-4.2388,-4.2432,-4.2429,-4.2451,-4.2462,-4.2527,-4.2551,-4.2521,-4.2631,-4.261,-4.2618,-4.2613,-4.262,-4.2626,-4.2618,-4.251,0,0,0,0,0,-4.2146,-4.2192,-4.2237,-4.2295,-4.2314,-4.2346,-4.2374,-4.2386,-4.2427,-4.2443,-4.2475,-4.2515,-4.2562,-4.2593,-4.2639,-4.2711,-4.2722,-4.2741,-4.2747,-4.2751,-4.2757,-4.2797,-4.2806,-4.271,-4.271,-4.271,0,0,-4.2164,-4.22,-4.2228,-4.2296,-4.2328,-4.2375,-4.236,-4.241,-4.2446,-4.2451,-4.2514,-4.2539,-4.2585,-4.2654,-4.2686,-4.2676,-4.2787,-4.2757,-4.276,-4.2764,-4.2803,-4.2812,-4.282,-4.2713,-4.2712,-4.2712,0,0,-4.2223,-4.2255,-4.2306,-4.2338,-4.2386,-4.2408,-4.242,-4.2469,-4.2486,-4.255,-4.2555,-4.2598,-4.2679,-4.2711,-4.2739,-4.2812,-4.2812,-4.2826,-4.2855,-4.2894,-4.2902,-4.2908,-4.2934,-4.2943,-4.2832,-4.2833,-4.2833,0,-4.224,-4.2311,-4.2332,-4.2383,-4.2413,-4.242,-4.2473,-4.2503,-4.2563,-4.2584,-4.2573,-4.2675,-4.2707,-4.2784,-4.2802,-4.2824,-4.2839,-4.2819,-4.2899,-4.2906,-4.2913,-4.2937,-4.2947,-4.2834,-4.2834,-4.2834,-4.2833,0,-4.233,-4.238,-4.2416,-4.2474,-4.2508,-4.256,-4.2588,-4.2621,-4.263,-4.2652,-4.2718,-4.2757,-4.2811,-4.283,-4.284,-4.2909,-4.2901,-4.2894,-4.2873,-4.2923,-4.2946,-4.2956,-4.2836,-4.2835,-4.2835,-4.2835,0,0,-4.2392,-4.2462,-4.2475,-4.2502,-4.2556,-4.2595,-4.2647,-4.27,-4.2727,-4.277,-4.2814,-4.2884,-4.2878,-4.2909,-4.2922,-4.2956,-4.3011,-4.2945,-4.2947,-4.2955,-4.309,-4.3093,-4.3104,-4.3013,-4.3015,-4.3016,-4.3085,0,-4.2455,-4.2547,-4.2568,-4.2648,-4.2694,-4.2703,-4.2748,-4.2787,-4.281,-4.2853,-4.2878,-4.2927,-4.2916,-4.2935,-4.2969,-4.2997,-4.3038,-4.2993,-4.3054,-4.3056,-4.304,-4.3116,-4.3121,-4.3184,-4.3095,-4.3096,-4.3098,0,-4.2541,-4.2586,-4.267,-4.2719,-4.2739,-4.2779,-4.283,-4.2871,-4.2915,-4.293,-4.2965,-4.2976,-4.3031,-4.3008,-4.3084,-4.3053,-4.3079,-4.3097,-4.31,-4.3105,-4.3078,-4.3122,-4.3204,-4.3213,-4.3112,-4.3111,-4.311,0,-4.2577,-4.2658,-4.2718,-4.2741,-4.28,-4.2829,-4.2854,-4.2897,-4.2928,-4.2973,-4.2993,-4.3044,-4.3072,-4.3111,-4.3135,-4.3116,-4.3209,-4.3188,-4.3222,-4.3222,-4.324,-4.3238,-4.3326,-4.3259,-4.3259,-4.3259,-4.3259,0,-4.2645,-4.2696,-4.2735,-4.2772,-4.283,-4.2854,-4.291,-4.2937,-4.2975,-4.3017,-4.3029,-4.3069,-4.3099,-4.3143,-4.3162,-4.3222,-4.3235,-4.3248,-4.3252,-4.3246,-4.3245,-4.3263,-4.3259,-4.3262,-4.3261,-4.3261,-4.326,0,-4.2693,-4.2722,-4.2789,-4.2839,-4.2853,-4.2894,-4.2937,-4.2974,-4.2998,-4.3052,-4.3066,-4.3104,-4.3157,-4.3185,-4.3251,-4.3264,-4.3331,-4.3334,-4.3316,-4.3318,-4.335,-4.3346,-4.3452,-4.3466,-4.3391,-4.3391,-4.3392,0,-4.2734,-4.2773,-4.2829,-4.2858,-4.2885,-4.2932,-4.2964,-4.299,-4.3022,-4.3077,-4.3107,-4.3161,-4.3204,-4.3289,-4.3322,-4.3373,-4.3376,-4.341,-4.3384,-4.3377,-4.3376,-4.3373,-4.3377,-4.3414,-4.3414,-4.3415,-4.3415,0,-4.2803,-4.2816,-4.2861,-4.2912,-4.295,-4.2991,-4.3031,-4.3055,-4.3088,-4.3124,-4.3178,-4.3213,-4.3281,-4.3334,-4.3388,-4.3415,-4.3421,-4.3424,-4.3434,-4.3428,-4.3415,-4.3422,-4.3327,-4.3421,-4.342,-4.342,-4.3419,-4.3419,-4.2849,-4.2884,-4.2929,-4.2979,-4.3013,-4.3051,-4.3088,-4.3117,-4.3163,-4.322,-4.3233,-4.329,-4.3334,-4.3407,-4.3436,-4.3482,-4.3475,-4.349,-4.3494,-4.3497,-4.3498,-4.3409,-4.3492,-4.3492,-4.3492,-4.3491,-4.3491,0,-4.2918,-4.2947,-4.2994,-4.305,-4.309,-4.3093,-4.3139,-4.3172,-4.3222,-4.3263,-4.3306,-4.3369,-4.3421,-4.3459,-4.3512,-4.3541,-4.3546,-4.3554,-4.3552,-4.3558,-4.3501,-4.3486,-4.355,-4.355,-4.355,-4.355,-4.355,-4.355,-4.2959,-4.3019,-4.3037,-4.3114,-4.3143,-4.3199,-4.3225,-4.3261,-4.3293,-4.3363,-4.3406,-4.3431,-4.3471,-4.3527,-4.3575,-4.3585,-4.3604,-4.3612,-4.3623,-4.3568,-4.3562,-4.3556,-4.3542,-4.3617,-4.3617,-4.3676,-4.3676,-4.3676]},{"header":{"parameterUnit":"m.s-1","parameterCategory":1,"la1":30.2991,"la2":30.254,"lo1":-89.0895,"lo2":-89.0444,"dy":0.0017,"dx":0.0017,"nx":28,"ny":28,"refTime":"2025-04-04T21:00:00:Z","depth":0,"parameterNumber":3,"parameterNumberName":"V-component_of_WINDS"},"data":[0,0,0,0,0,0,0,0,0,0,0,0,0,0,0,0,0,0,0,0,0,0,0,0,0,0,0,0,0,0,0,0,0,0,0,0,0,0,0,0,0,0,0,0,0,0,0,0,0,0,0,0,0,0,0,0,0,0,6.0984,6.0985,0,6.1151,6.1153,6.1155,6.1149,6.1146,6.1144,6.1142,6.1311,6.1317,6.1324,0,0,0,0,0,0,0,0,0,0,0,0,0,6.0657,6.0663,6.0983,6.0985,6.0988,6.1151,6.1153,6.1155,6.1149,6.1146,6.1143,6.1141,6.1308,6.1316,6.1324,0,0,0,0,0,0,0,0,0,0,0,0,0,6.0809,6.0665,6.0983,6.1004,6.1008,6.115,6.1153,6.1156,6.115,6.1146,6.1143,6.1139,6.1306,6.1315,6.1325,6.1457,0,0,6.1356,6.136,0,0,0,0,0,0,0,0,6.0801,6.0821,6.0999,6.1003,6.1007,6.1126,6.11,6.1257,6.1151,6.1096,6.1142,6.1138,6.1252,6.1266,6.1305,6.1465,6.1472,6.1357,6.1363,6.1367,6.137,0,0,0,0,0,0,0,6.079,6.0814,6.105,6.1002,6.1007,6.1005,6.1023,6.113,6.1191,6.11,6.11,6.112,6.1253,6.1295,6.1309,6.1475,6.1356,6.1365,6.1372,6.1375,6.1756,6.176,0,0,0,0,0,0,6.0775,6.0805,6.1044,6.1055,6.0893,6.1014,6.1034,6.1091,6.119,6.1202,6.1123,6.1119,6.128,6.1297,6.1315,6.1479,6.1367,6.1376,6.1382,6.1752,6.1757,6.1761,0,0,0,0,0,0,6.0768,6.0797,6.1038,6.093,6.0961,6.1023,6.1088,6.1096,6.1138,6.1207,6.1218,6.1155,6.1278,6.1301,6.1423,6.1484,6.1381,6.139,6.1747,6.1753,6.1759,6.1806,0,0,0,0,0,0,6.0759,6.0794,6.0845,6.0931,6.0967,6.1143,6.1091,6.1102,6.1156,6.1153,6.124,6.1251,6.1277,6.1408,6.1433,6.1496,6.1398,6.1742,6.175,6.1757,6.1799,6.1813,6.1824,0,0,0,0,0,6.0747,6.085,6.0847,6.0876,6.1031,6.1147,6.1167,6.1195,6.1161,6.1213,6.1258,6.1248,6.1473,6.1421,6.1449,6.1516,6.1738,6.1747,6.1756,6.1793,6.181,6.1824,0,0,0,0,0,0,6.0767,6.0861,6.086,6.0993,6.1062,6.1145,6.1211,6.1211,6.1291,6.1284,6.1315,6.1335,6.1458,6.1499,6.1438,6.1651,6.1601,6.1616,6.162,6.1636,6.1649,6.1637,6.1406,0,0,0,0,0,6.0787,6.0873,6.0951,6.1061,6.1096,6.1148,6.1199,6.1216,6.1288,6.1317,6.137,6.144,6.1527,6.1584,6.1667,6.1804,6.1825,6.1865,6.1877,6.1887,6.1901,6.198,6.2,6.1791,6.1791,6.1791,0,0,6.0828,6.0891,6.0943,6.1067,6.1122,6.1212,6.1172,6.1267,6.1335,6.1331,6.1451,6.1493,6.1573,6.1705,6.1765,6.1742,6.1963,6.1899,6.1907,6.1915,6.1992,6.2011,6.2029,6.1798,6.1796,6.1795,0,0,6.0951,6.1006,6.1106,6.1163,6.1248,6.1283,6.1307,6.1391,6.142,6.1541,6.1541,6.1621,6.1769,6.1828,6.1876,6.2025,6.2021,6.2051,6.2118,6.2195,6.2212,6.2227,6.2282,6.2302,6.2064,6.2064,6.2064,0,6.0992,6.1127,6.1156,6.1254,6.131,6.1312,6.1415,6.1468,6.1576,6.1614,6.1587,6.1776,6.183,6.1977,6.2014,6.2053,6.2082,6.2042,6.2207,6.2222,6.2236,6.229,6.2311,6.2067,6.2067,6.2067,6.2066,0,6.1175,6.1269,6.1339,6.1446,6.1509,6.1608,6.1654,6.1714,6.1725,6.1763,6.1888,6.1953,6.2052,6.2088,6.2098,6.2238,6.2221,6.22,6.2152,6.2259,6.231,6.2331,6.2072,6.2071,6.207,6.2069,0,0,6.1313,6.1438,6.1463,6.1513,6.1609,6.1683,6.1783,6.1881,6.1934,6.2008,6.2094,6.2221,6.2204,6.226,6.2277,6.2345,6.2463,6.2316,6.2319,6.2344,6.2624,6.264,6.2664,6.246,6.2464,6.2467,6.2618,0,6.1448,6.1627,6.1658,6.1815,6.1904,6.1909,6.1997,6.2066,6.2104,6.2185,6.2226,6.2318,6.2286,6.2321,6.2387,6.2434,6.252,6.2423,6.2542,6.2545,6.2524,6.269,6.2707,6.2846,6.2638,6.2641,6.2643,0,6.1628,6.1711,6.1878,6.1965,6.2004,6.2082,6.2177,6.2253,6.2332,6.2356,6.242,6.2431,6.2536,6.2482,6.2629,6.2563,6.2613,6.2644,6.265,6.2663,6.2602,6.271,6.2891,6.2913,6.2675,6.2672,6.267,0,6.1717,6.1869,6.1989,6.2032,6.2136,6.2192,6.2237,6.2313,6.2371,6.2453,6.2492,6.2584,6.2636,6.2707,6.2744,6.27,6.2889,6.2837,6.2913,6.2912,6.2953,6.2951,6.3147,6.2982,6.2981,6.2981,6.2981,0,6.1865,6.1967,6.2031,6.2105,6.2221,6.2256,6.2369,6.2414,6.2482,6.2565,6.2574,6.2652,6.2694,6.2779,6.2808,6.2927,6.2949,6.2972,6.2978,6.2972,6.297,6.3007,6.2999,6.2987,6.2985,6.2984,6.2983,0,6.1983,6.203,6.2162,6.2251,6.2276,6.2357,6.2434,6.2507,6.2545,6.2652,6.2678,6.2739,6.284,6.2883,6.3005,6.3025,6.3163,6.3161,6.3137,6.314,6.3214,6.3208,6.3443,6.3477,6.3287,6.3288,6.329,0,6.2076,6.2155,6.2254,6.2312,6.236,6.2452,6.2513,6.255,6.2613,6.2711,6.2773,6.2874,6.2957,6.3118,6.3173,6.3268,6.327,6.3346,6.3284,6.3277,6.3275,6.3271,6.328,6.3358,6.336,6.3361,6.3362,0,6.2237,6.2257,6.2344,6.2441,6.2514,6.2591,6.2667,6.2713,6.2763,6.2833,6.2938,6.3002,6.313,6.3231,6.333,6.3377,6.338,6.3381,6.3405,6.34,6.3384,6.3397,6.317,6.3376,6.3375,6.3374,6.3373,6.3372,6.2347,6.242,6.2502,6.26,6.2661,6.2733,6.2807,6.2857,6.2944,6.3052,6.3069,6.3181,6.3261,6.3394,6.3446,6.3534,6.3515,6.3548,6.3556,6.3565,6.3571,6.3369,6.3552,6.3551,6.3551,6.3551,6.3551,0,6.2511,6.2565,6.2655,6.2762,6.284,6.2836,6.2921,6.2986,6.3085,6.316,6.3243,6.3364,6.3463,6.3527,6.3627,6.3686,6.369,6.3712,6.3709,6.372,6.358,6.3552,6.3707,6.3707,6.3707,6.3707,6.3707,6.3707,6.2606,6.273,6.276,6.2915,6.2967,6.3079,6.3128,6.3195,6.3255,6.3391,6.3474,6.3515,6.3587,6.3693,6.3784,6.3801,6.3838,6.3862,6.3877,6.3746,6.373,6.3714,6.3688,6.3869,6.3869,6.401,6.4011,6.4012]}]]